TimeMDT,TemperatureF,Dew PointF,Humidity,Sea Level PressureIn,VisibilityMPH,Wind Direction,Wind SpeedMPH,Gust SpeedMPH,PrecipitationIn,Events,Conditions,WindDirDegrees,DateUTC
12:53 AM,61.0,28.9,30,29.83,10.0,North,3.5,-,N/A,,Clear,350,2013-06-10 06:53:00
1:53 AM,59.0,28.9,32,29.83,10.0,Calm,Calm,-,N/A,,Clear,0,2013-06-10 07:53:00
2:53 AM,52.0,27.0,38,29.85,10.0,ENE,3.5,-,N/A,,Clear,60,2013-06-10 08:53:00
3:53 AM,53.1,28.0,38,29.85,10.0,North,4.6,-,N/A,,Clear,360,2013-06-10 09:53:00
4:53 AM,45.0,28.9,53,29.90,10.0,East,4.6,-,N/A,,Clear,80,2013-06-10 10:53:00
5:53 AM,48.0,28.9,48,29.89,10.0,NE,5.8,-,N/A,,Clear,40,2013-06-10 11:53:00
6:53 AM,52.0,32.0,47,29.91,10.0,SSW,3.5,-,N/A,,Clear,200,2013-06-10 12:53:00
7:53 AM,63.0,33.1,33,29.90,10.0,Calm,Calm,-,N/A,,Clear,0,2013-06-10 13:53:00
8:53 AM,72.0,32.0,23,29.90,10.0,Calm,Calm,-,N/A,,Clear,0,2013-06-10 14:53:00
9:53 AM,77.0,33.1,20,29.89,10.0,East,8.1,-,N/A,,Clear,100,2013-06-10 15:53:00
10:53 AM,82.0,33.1,17,29.90,10.0,East,6.9,-,N/A,,Clear,90,2013-06-10 16:53:00
11:53 AM,86.0,33.1,15,29.88,10.0,ENE,6.9,-,N/A,,Clear,60,2013-06-10 17:53:00
12:53 PM,88.0,30.0,12,29.86,10.0,Variable,5.8,-,N/A,,Clear,0,2013-06-10 18:53:00
1:53 PM,91.0,25.0,9,29.84,10.0,SW,18.4,21.9,N/A,,Clear,220,2013-06-10 19:53:00
2:37 PM,93.2,26.6,9,30.13,10.0,West,13.8,24.2,N/A,,Clear,260,2013-06-10 20:37:00
2:53 PM,89.1,24.1,9,29.85,10.0,SSW,6.9,17.3,N/A,,Clear,200,2013-06-10 20:53:00
3:53 PM,89.1,21.9,9,29.83,10.0,SW,12.7,27.6,N/A,,Clear,220,2013-06-10 21:53:00
4:53 PM,91.9,24.1,9,29.83,10.0,WSW,15.0,26.5,N/A,,Clear,240,2013-06-10 22:53:00
5:53 PM,90.0,24.1,9,29.81,10.0,WSW,10.4,23.0,N/A,,Clear,250,2013-06-10 23:53:00
6:53 PM,87.1,26.1,11,29.80,10.0,SW,9.2,-,N/A,,Clear,230,2013-06-11 00:53:00
7:53 PM,84.0,26.1,12,29.76,10.0,WSW,10.4,-,N/A,,Clear,250,2013-06-11 01:53:00
8:53 PM,81.0,19.0,10,29.76,10.0,West,10.4,-,N/A,,Clear,260,2013-06-11 02:53:00
9:53 PM,73.9,19.9,13,29.78,10.0,Calm,Calm,-,N/A,,Clear,0,2013-06-11 03:53:00
10:53 PM,72.0,21.9,15,29.81,10.0,WNW,4.6,-,N/A,,Clear,290,2013-06-11 04:53:00
11:53 PM,57.0,23.0,27,29.86,10.0,Calm,Calm,-,N/A,,Clear,0,2013-06-11 05:53:00